[[{"header":{"parameterUnit":"m.s-1","parameterCategory":2,"la1":30.2991,"la2":30.254,"lo1":-89.0895,"lo2":-89.0444,"dy":0.0017,"dx":0.0017,"nx":28,"ny":28,"refTime":"2024-07-24T03:00:00:Z","depth":"0","parameterNumber":2,"parameterNumberName":"U-component_of_CURRENTS"},"data":[0,0,0,0,0,0,0,0,0,0,0,0,0,0,0,0,0,0,0,0,0,0,0,0,0,0,0,0,0,0,0,0,0,0,0,0,0,0,0,0,0,0,0,0,0,0,0,0,0,0,0,0,0,0,0,0,0,0,-0.2309,-0.2309,0,-0.2269,-0.2268,-0.2268,-0.2186,-0.2184,-0.2183,-0.2181,-0.2051,-0.205,-0.2048,0,0,0,0,0,0,0,0,0,0,0,0,0,-0.2396,-0.2394,-0.2309,-0.2309,-0.2308,-0.2269,-0.2268,-0.2268,-0.2186,-0.2184,-0.2182,-0.218,-0.2052,-0.205,-0.2047,0,0,0,0,0,0,0,0,0,0,0,0,0,-0.2357,-0.2393,-0.2309,-0.2263,-0.2258,-0.2269,-0.2268,-0.2268,-0.2187,-0.2184,-0.2182,-0.2179,-0.2053,-0.205,-0.2047,-0.2079,0,0,-0.2038,-0.2037,0,0,0,0,0,0,0,0,-0.2359,-0.2354,-0.227,-0.2266,-0.2261,-0.223,-0.2251,-0.22,-0.2187,-0.2214,-0.2181,-0.2178,-0.2105,-0.2097,-0.2097,-0.2072,-0.2067,-0.2038,-0.2036,-0.2035,-0.2034,0,0,0,0,0,0,0,-0.2362,-0.2356,-0.2293,-0.227,-0.2264,-0.2271,-0.2262,-0.2242,-0.2172,-0.2211,-0.2205,-0.2201,-0.2101,-0.21,-0.2093,-0.2065,-0.2038,-0.2036,-0.2034,-0.2033,-0.2047,-0.2049,0,0,0,0,0,0,-0.2365,-0.2358,-0.2295,-0.2292,-0.2305,-0.2271,-0.2261,-0.2242,-0.2174,-0.2162,-0.2204,-0.2198,-0.2106,-0.2096,-0.2088,-0.2112,-0.2035,-0.2032,-0.2031,-0.2045,-0.2048,-0.205,0,0,0,0,0,0,-0.2367,-0.2359,-0.2296,-0.2325,-0.2317,-0.2272,-0.2252,-0.2243,-0.2226,-0.2169,-0.2154,-0.2193,-0.2103,-0.2092,-0.2062,-0.2106,-0.2031,-0.2028,-0.2043,-0.2046,-0.2049,-0.2165,0,0,0,0,0,0,-0.2369,-0.236,-0.2344,-0.2325,-0.2316,-0.2299,-0.2254,-0.2244,-0.2228,-0.2219,-0.2156,-0.2142,-0.2101,-0.2067,-0.2059,-0.21,-0.2026,-0.204,-0.2044,-0.2048,-0.2159,-0.2172,-0.2183,0,0,0,0,0,-0.2372,-0.236,-0.2344,-0.2336,-0.2296,-0.23,-0.2297,-0.2257,-0.223,-0.2231,-0.2186,-0.2143,-0.2087,-0.2066,-0.2056,-0.2098,-0.2038,-0.2043,-0.2048,-0.2153,-0.2169,-0.2183,0,0,0,0,0,0,-0.2379,-0.2351,-0.2331,-0.2307,-0.2304,-0.2286,-0.2282,-0.2262,-0.2232,-0.2217,-0.2158,-0.2143,-0.214,-0.2104,-0.2082,-0.2117,-0.2062,-0.2065,-0.2145,-0.216,-0.2172,-0.2198,-0.2024,0,0,0,0,0,-0.2379,-0.2364,-0.2347,-0.2328,-0.233,-0.231,-0.2304,-0.2284,-0.2259,-0.2242,-0.2202,-0.2169,-0.2161,-0.2143,-0.2123,-0.2134,-0.2085,-0.216,-0.2172,-0.2183,-0.22,-0.2171,-0.2182,-0.2066,-0.2066,-0.2066,0,0,-0.2375,-0.2359,-0.2348,-0.2331,-0.2324,-0.2348,-0.23,-0.2298,-0.2319,-0.2234,-0.2238,-0.2205,-0.2173,-0.2187,-0.2184,-0.2155,-0.2186,-0.2189,-0.2198,-0.2209,-0.2177,-0.2188,-0.2198,-0.2069,-0.2068,-0.2068,0,0,-0.2392,-0.2353,-0.2362,-0.2371,-0.2368,-0.2364,-0.2367,-0.2355,-0.2347,-0.235,-0.2309,-0.2303,-0.227,-0.2272,-0.2266,-0.2338,-0.2253,-0.2329,-0.2409,-0.2382,-0.2391,-0.2398,-0.2329,-0.2329,-0.2334,-0.2335,-0.2335,0,-0.2393,-0.2391,-0.2368,-0.2397,-0.2406,-0.2379,-0.2411,-0.2418,-0.2397,-0.2399,-0.236,-0.2346,-0.2323,-0.2358,-0.2394,-0.2368,-0.2313,-0.2353,-0.2397,-0.2403,-0.2409,-0.2336,-0.2335,-0.2341,-0.234,-0.234,-0.2339,0,-0.2431,-0.2434,-0.2445,-0.247,-0.2484,-0.25,-0.2515,-0.2523,-0.2505,-0.2503,-0.2514,-0.2483,-0.2468,-0.2481,-0.2462,-0.2508,-0.2442,-0.2414,-0.2357,-0.2427,-0.2346,-0.2343,-0.235,-0.2347,-0.2346,-0.2344,0,0,-0.2416,-0.2462,-0.2464,-0.2493,-0.2519,-0.2538,-0.2585,-0.2613,-0.2627,-0.2623,-0.2627,-0.2665,-0.2627,-0.2622,-0.2596,-0.2597,-0.2599,-0.2534,-0.253,-0.2461,-0.2496,-0.2333,-0.2312,-0.2566,-0.2567,-0.2567,-0.2414,0,-0.2449,-0.2514,-0.2527,-0.2592,-0.2626,-0.2633,-0.2676,-0.2703,-0.2693,-0.2689,-0.2688,-0.2677,-0.2687,-0.2661,-0.2679,-0.26,-0.2598,-0.264,-0.2442,-0.2436,-0.2279,-0.2307,-0.2197,-0.2041,-0.241,-0.2409,-0.2409,0,-0.2478,-0.2517,-0.2581,-0.2648,-0.2663,-0.2698,-0.2736,-0.2773,-0.2782,-0.2767,-0.2768,-0.2727,-0.2739,-0.2718,-0.2661,-0.2674,-0.2617,-0.2565,-0.2556,-0.2365,-0.2268,-0.2035,-0.202,-0.201,-0.2403,-0.2403,-0.2404,0,-0.2471,-0.2554,-0.26,-0.2624,-0.2696,-0.2724,-0.2759,-0.2786,-0.2775,-0.2795,-0.2746,-0.2765,-0.2698,-0.2681,-0.2574,-0.2612,-0.2457,-0.2483,-0.229,-0.2275,-0.2124,-0.2094,-0.2075,-0.2465,-0.2465,-0.2465,-0.2466,0,-0.2486,-0.2521,-0.2601,-0.2623,-0.2662,-0.2732,-0.2747,-0.2781,-0.2772,-0.272,-0.277,-0.2686,-0.2683,-0.2576,-0.2548,-0.2364,-0.2427,-0.2302,-0.2232,-0.2157,-0.2134,-0.207,-0.2107,-0.2459,-0.2461,-0.2462,-0.2463,0,-0.2435,-0.2502,-0.2545,-0.2629,-0.2648,-0.2671,-0.2691,-0.2684,-0.2713,-0.2628,-0.2616,-0.2577,-0.245,-0.2403,-0.2303,-0.2258,-0.2092,-0.2078,-0.1963,-0.1884,-0.1722,-0.1769,-0.1656,-0.1615,-0.1865,-0.186,-0.1856,0,-0.2402,-0.2418,-0.2499,-0.2493,-0.2513,-0.2552,-0.255,-0.2623,-0.2581,-0.2526,-0.2447,-0.2334,-0.2206,-0.2,-0.1904,-0.1785,-0.1857,-0.1625,-0.1717,-0.169,-0.1693,-0.1751,-0.1733,-0.1556,-0.155,-0.1545,-0.1541,0,-0.2267,-0.2293,-0.2304,-0.2317,-0.2327,-0.2353,-0.2355,-0.2316,-0.2354,-0.2299,-0.216,-0.2067,-0.1867,-0.1671,-0.1515,-0.1458,-0.1581,-0.1514,-0.1535,-0.149,-0.1504,-0.1436,-0.1662,-0.1495,-0.15,-0.1503,-0.1506,-0.1507,-0.2087,-0.2053,-0.205,-0.2055,-0.2096,-0.2093,-0.203,-0.2032,-0.1961,-0.1792,-0.1844,-0.1616,-0.152,-0.1284,-0.122,-0.1078,-0.1212,-0.1088,-0.1153,-0.1218,-0.1174,-0.1271,-0.0998,-0.0999,-0.1001,-0.1002,-0.1003,0,-0.1793,-0.1771,-0.1768,-0.1765,-0.1753,-0.1856,-0.1824,-0.172,-0.1572,-0.1463,-0.1336,-0.109,-0.098,-0.0914,-0.0815,-0.0763,-0.0814,-0.0766,-0.0881,-0.0888,-0.0993,-0.0974,-0.0624,-0.0624,-0.0624,-0.0624,-0.0624,-0.0624,-0.1601,-0.148,-0.1508,-0.1394,-0.142,-0.1312,-0.1261,-0.116,-0.1044,-0.0742,-0.0514,-0.0418,-0.0485,-0.0661,-0.0666,-0.0643,-0.0704,-0.0632,-0.0714,-0.0855,-0.0894,-0.0931,-0.0924,-0.0568,-0.0568,-0.0573,-0.0574,-0.0574]},{"header":{"parameterUnit":"m.s-1","parameterCategory":2,"la1":30.2991,"la2":30.254,"lo1":-89.0895,"lo2":-89.0444,"dy":0.0017,"dx":0.0017,"nx":28,"ny":28,"refTime":"2024-07-24T03:00:00:Z","depth":"0","parameterNumber":3,"parameterNumberName":"V-component_of_CURRENTS"},"data":[0,0,0,0,0,0,0,0,0,0,0,0,0,0,0,0,0,0,0,0,0,0,0,0,0,0,0,0,0,0,0,0,0,0,0,0,0,0,0,0,0,0,0,0,0,0,0,0,0,0,0,0,0,0,0,0,0,0,0.0207,0.0208,0,0.0264,0.0265,0.0265,0.0324,0.0325,0.0326,0.0327,0.0406,0.0408,0.0409,0,0,0,0,0,0,0,0,0,0,0,0,0,0.0063,0.0066,0.0207,0.0208,0.0208,0.0264,0.0265,0.0265,0.0324,0.0325,0.0326,0.0327,0.0406,0.0407,0.0409,0,0,0,0,0,0,0,0,0,0,0,0,0,0.0123,0.0067,0.0207,0.0245,0.0249,0.0264,0.0265,0.0266,0.0324,0.0325,0.0326,0.0327,0.0405,0.0407,0.0409,0.0397,0,0,0.0416,0.0416,0,0,0,0,0,0,0,0,0.012,0.0129,0.0238,0.0242,0.0246,0.0288,0.0243,0.0311,0.0323,0.0295,0.0327,0.0328,0.0368,0.0373,0.0381,0.0401,0.0404,0.0416,0.0417,0.0418,0.0418,0,0,0,0,0,0,0,0.0116,0.0126,0.0229,0.0239,0.0244,0.0229,0.024,0.0256,0.0324,0.0298,0.0302,0.0308,0.0371,0.0379,0.0383,0.0405,0.0416,0.0417,0.0419,0.0419,0.0402,0.0401,0,0,0,0,0,0,0.0113,0.0123,0.0228,0.0231,0.0185,0.0231,0.0243,0.0273,0.0324,0.0332,0.0307,0.0311,0.0374,0.0381,0.0386,0.0367,0.0418,0.042,0.0421,0.0404,0.0402,0.04,0,0,0,0,0,0,0.011,0.0123,0.0225,0.0176,0.0189,0.0233,0.0266,0.0274,0.0284,0.0331,0.034,0.0309,0.0376,0.0383,0.0386,0.0371,0.0421,0.0422,0.0406,0.0403,0.0401,0.0334,0,0,0,0,0,0,0.0106,0.0122,0.0138,0.0177,0.0191,0.0218,0.0265,0.0274,0.0286,0.0291,0.0335,0.0344,0.0377,0.0382,0.0388,0.0375,0.0424,0.0408,0.0405,0.0402,0.0339,0.033,0.0322,0,0,0,0,0,0.0101,0.0111,0.0139,0.0151,0.0215,0.0217,0.0221,0.0256,0.0284,0.0272,0.0303,0.0343,0.0366,0.0382,0.0389,0.0377,0.0409,0.0406,0.0402,0.0342,0.0332,0.0323,0,0,0,0,0,0,0.0067,0.0119,0.015,0.0181,0.0192,0.0227,0.0223,0.0248,0.0263,0.0273,0.0322,0.0331,0.0322,0.0352,0.0369,0.0359,0.0394,0.0391,0.0346,0.0336,0.0328,0.0339,0.0426,0,0,0,0,0,0.0066,0.0084,0.0125,0.0146,0.0151,0.0186,0.0193,0.0214,0.0236,0.0245,0.0275,0.0302,0.031,0.0326,0.0333,0.0335,0.0371,0.0329,0.0321,0.0314,0.0324,0.0362,0.0359,0.0388,0.0388,0.0388,0,0,0.0062,0.009,0.0104,0.0138,0.0155,0.0138,0.0193,0.0194,0.0186,0.025,0.0244,0.0266,0.0298,0.0292,0.0293,0.0321,0.0317,0.0309,0.0303,0.0318,0.0358,0.0355,0.0353,0.0385,0.0386,0.0386,0,0,0.0027,0.0083,0.007,0.0072,0.0087,0.0103,0.0099,0.0125,0.0143,0.0135,0.0177,0.0199,0.0206,0.0241,0.0256,0.0208,0.0261,0.0199,0.0186,0.0221,0.022,0.022,0.0239,0.0241,0.0211,0.021,0.021,0,0.0018,0.002,0.0061,0.0035,0.0036,0.008,0.0052,0.0066,0.0088,0.0111,0.0119,0.016,0.0186,0.0209,0.0189,0.0194,0.0214,0.0223,0.0213,0.0214,0.0215,0.0235,0.0238,0.0207,0.0207,0.0208,0.0208,0,-0.0039,-0.0039,-0.0052,-0.0061,-0.0061,-0.0077,-0.0052,-0.0046,-0.0018,0.0014,0.0038,0.0077,0.0118,0.0116,0.0138,0.0156,0.0165,0.0188,0.0245,0.0208,0.0231,0.0235,0.0201,0.0203,0.0204,0.0205,0,0,-0.006,-0.0085,-0.0093,-0.0108,-0.0108,-0.0114,-0.0125,-0.0106,-0.0084,-0.0063,-0.0035,-0.0011,0.0046,0.0067,0.0107,0.0141,0.0153,0.0163,0.0167,0.0193,0.0215,0.0252,0.026,0.0172,0.0173,0.0174,0.0221,0,-0.012,-0.0186,-0.0177,-0.0232,-0.0259,-0.0217,-0.0223,-0.0193,-0.0152,-0.0118,-0.005,-0.0019,0.0017,0.0044,0.0082,0.0126,0.0164,0.0137,0.0238,0.0241,0.0288,0.0267,0.0292,0.034,0.0226,0.0227,0.0228,0,-0.0187,-0.0221,-0.0286,-0.0295,-0.0298,-0.0318,-0.0284,-0.0282,-0.0212,-0.0171,-0.0108,-0.0054,-0.0001,0.0032,0.0118,0.0095,0.0153,0.0194,0.0197,0.0265,0.0287,0.0362,0.0353,0.047,0.0235,0.0235,0.0234,0,-0.0236,-0.0291,-0.034,-0.0351,-0.0361,-0.036,-0.0352,-0.0291,-0.0264,-0.0195,-0.0166,-0.0084,-0.0051,0.0028,0.0118,0.0115,0.021,0.0222,0.0315,0.0317,0.0379,0.0386,0.0512,0.0299,0.0299,0.0299,0.0299,0,-0.0301,-0.0339,-0.0365,-0.0395,-0.0419,-0.0402,-0.039,-0.0359,-0.0301,-0.0273,-0.019,-0.016,-0.0052,0.002,0.0105,0.0221,0.0208,0.0315,0.0339,0.0352,0.0355,0.0494,0.0532,0.0301,0.03,0.03,0.03,0,-0.0344,-0.0371,-0.0423,-0.0445,-0.0447,-0.0459,-0.0428,-0.0409,-0.0354,-0.0323,-0.0307,-0.0223,-0.0137,-0.0014,0.011,0.0202,0.0381,0.0365,0.0365,0.0389,0.0578,0.061,0.0732,0.0801,0.0465,0.0466,0.0468,0,-0.0368,-0.0407,-0.0455,-0.0472,-0.0483,-0.0488,-0.0481,-0.0439,-0.0419,-0.0365,-0.0362,-0.0273,-0.0208,-0.0009,0.0175,0.035,0.0435,0.0484,0.0498,0.0602,0.0654,0.0657,0.0705,0.0538,0.054,0.0541,0.0542,0,-0.0398,-0.0417,-0.0451,-0.0495,-0.0512,-0.0533,-0.0528,-0.0531,-0.0487,-0.0471,-0.0449,-0.04,-0.0187,0.0026,0.0282,0.0382,0.0563,0.0516,0.0634,0.0735,0.0737,0.081,0.0479,0.0554,0.0553,0.0552,0.0551,0.0551,-0.0388,-0.0418,-0.0455,-0.0492,-0.0527,-0.0574,-0.058,-0.0595,-0.0601,-0.0551,-0.05,-0.0305,-0.0018,0.0337,0.0437,0.0721,0.0669,0.0802,0.0832,0.0825,0.0899,0.0588,0.0686,0.0686,0.0686,0.0685,0.0685,0,-0.0346,-0.0388,-0.0437,-0.0493,-0.0539,-0.0555,-0.0596,-0.06,-0.0634,-0.0511,-0.0447,0.0106,0.0324,0.0622,0.0942,0.1055,0.1064,0.1098,0.1118,0.1155,0.0899,0.0913,0.1054,0.1053,0.1053,0.1053,0.1053,0.1053,-0.0316,-0.035,-0.0394,-0.0472,-0.0516,-0.0558,-0.0584,-0.0613,-0.0521,-0.0244,0.0174,0.0471,0.094,0.1131,0.1339,0.1348,0.1464,0.1406,0.148,0.1316,0.1291,0.1267,0.1292,0.151,0.151,0.1728,0.173,0.1732]}],[{"header":{"parameterUnit":"m.s-1","parameterCategory":2,"la1":30.2991,"la2":30.254,"lo1":-89.0895,"lo2":-89.0444,"dy":0.0017,"dx":0.0017,"nx":28,"ny":28,"refTime":"2024-07-24T03:00:00:Z","depth":"2","parameterNumber":2,"parameterNumberName":"U-component_of_CURRENTS"},"data":[0,0,0,0,0,0,0,0,0,0,0,0,0,0,0,0,0,0,0,0,0,0,0,0,0,0,0,0,0,0,0,0,0,0,0,0,0,0,0,0,0,0,0,0,0,0,0,0,0,0,0,0,0,0,0,0,0,0,-0.1844,-0.1845,0,-0.1965,-0.1966,-0.1967,-0.1993,-0.1992,-0.1991,-0.1991,-0.2202,-0.2208,-0.2214,0,0,0,0,0,0,0,0,0,0,0,0,0,-0.176,-0.176,-0.1844,-0.1846,-0.1847,-0.1964,-0.1966,-0.1968,-0.1993,-0.1992,-0.1991,-0.199,-0.22,-0.2207,-0.2215,0,0,0,0,0,0,0,0,0,0,0,0,0,-0.1829,-0.176,-0.1844,-0.1874,-0.1878,-0.1964,-0.1966,-0.1968,-0.1994,-0.1992,-0.1991,-0.199,-0.2197,-0.2207,-0.2216,-0.2302,0,0,-0.2246,-0.225,0,0,0,0,0,0,0,0,-0.1825,-0.1832,-0.1868,-0.1872,-0.1877,-0.1963,-0.2014,-0.2084,-0.1994,-0.195,-0.1991,-0.1989,-0.2131,-0.2146,-0.217,-0.2312,-0.2321,-0.2246,-0.2252,-0.2256,-0.2259,0,0,0,0,0,0,0,-0.182,-0.1828,-0.1892,-0.187,-0.1875,-0.1924,-0.1931,-0.2027,-0.2048,-0.1953,-0.1956,-0.197,-0.2134,-0.2161,-0.2176,-0.2324,-0.2246,-0.2255,-0.2261,-0.2264,-0.2479,-0.2479,0,0,0,0,0,0,-0.1801,-0.1823,-0.1888,-0.1895,-0.1847,-0.1926,-0.1934,-0.1936,-0.2045,-0.206,-0.1971,-0.197,-0.2145,-0.2164,-0.2183,-0.2273,-0.2256,-0.2265,-0.2271,-0.2479,-0.2479,-0.2479,0,0,0,0,0,0,-0.1798,-0.1805,-0.1883,-0.1863,-0.1876,-0.1928,-0.1931,-0.1939,-0.1972,-0.2057,-0.2073,-0.1995,-0.2145,-0.217,-0.2228,-0.2282,-0.227,-0.2279,-0.2479,-0.2479,-0.2479,-0.2465,0,0,0,0,0,0,-0.1795,-0.1803,-0.1801,-0.1861,-0.1876,-0.1943,-0.1932,-0.1943,-0.1983,-0.1984,-0.2084,-0.2101,-0.2146,-0.2213,-0.2238,-0.2295,-0.2286,-0.2479,-0.2479,-0.2479,-0.2466,-0.2465,-0.2464,0,0,0,0,0,-0.1791,-0.1797,-0.18,-0.1808,-0.187,-0.1944,-0.1958,-0.1991,-0.1985,-0.2012,-0.2036,-0.2098,-0.223,-0.222,-0.225,-0.2312,-0.2479,-0.2479,-0.2479,-0.2466,-0.2465,-0.2464,0,0,0,0,0,0,-0.1762,-0.1802,-0.1806,-0.1822,-0.1881,-0.1949,-0.197,-0.1999,-0.2043,-0.2042,-0.21,-0.212,-0.22,-0.2242,-0.2229,-0.2365,-0.2367,-0.2373,-0.2348,-0.2347,-0.2346,-0.2307,-0.2294,0,0,0,0,0,-0.1753,-0.1766,-0.1821,-0.184,-0.1858,-0.1916,-0.1949,-0.1986,-0.2032,-0.2051,-0.2108,-0.2163,-0.2226,-0.2268,-0.2336,-0.2415,-0.2386,-0.2469,-0.2468,-0.2467,-0.245,-0.2398,-0.239,-0.2478,-0.2478,-0.2478,0,0,-0.1739,-0.1772,-0.1774,-0.1835,-0.1871,-0.1924,-0.1932,-0.1996,-0.2041,-0.2072,-0.2133,-0.2179,-0.2243,-0.2317,-0.2359,-0.2358,-0.2428,-0.2467,-0.2466,-0.2449,-0.2396,-0.2387,-0.238,-0.2478,-0.2478,-0.2478,0,0,-0.1754,-0.1752,-0.1778,-0.1825,-0.1899,-0.194,-0.1959,-0.2034,-0.2059,-0.2138,-0.2149,-0.2186,-0.232,-0.2337,-0.2373,-0.2407,-0.2427,-0.2459,-0.2432,-0.2382,-0.2373,-0.2365,-0.2321,-0.2309,-0.2455,-0.2455,-0.2455,0,-0.1745,-0.1771,-0.1803,-0.1854,-0.1884,-0.1944,-0.199,-0.204,-0.2127,-0.2136,-0.216,-0.2257,-0.2325,-0.2358,-0.2367,-0.241,-0.2375,-0.2437,-0.2378,-0.2369,-0.2362,-0.2318,-0.2305,-0.2454,-0.2454,-0.2454,-0.2454,0,-0.1785,-0.1807,-0.1826,-0.1895,-0.1945,-0.1992,-0.206,-0.2097,-0.214,-0.219,-0.2238,-0.2282,-0.2333,-0.2369,-0.2395,-0.2383,-0.2375,-0.2384,-0.2377,-0.2351,-0.2308,-0.2294,-0.2453,-0.2454,-0.2454,-0.2454,0,0,-0.1759,-0.1834,-0.1841,-0.1869,-0.1961,-0.2011,-0.2062,-0.212,-0.2135,-0.2215,-0.2208,-0.231,-0.2321,-0.2353,-0.2375,-0.2326,-0.2264,-0.2333,-0.233,-0.228,-0.2143,-0.2077,-0.2056,-0.2255,-0.2253,-0.2251,-0.2136,0,-0.1776,-0.1856,-0.189,-0.1959,-0.1996,-0.2036,-0.2075,-0.2142,-0.219,-0.2201,-0.2223,-0.2256,-0.2324,-0.2327,-0.2303,-0.2281,-0.2227,-0.2294,-0.2182,-0.2178,-0.2115,-0.2038,-0.1911,-0.1791,-0.2123,-0.2121,-0.2119,0,-0.1788,-0.185,-0.1908,-0.1967,-0.1981,-0.2037,-0.2073,-0.212,-0.2147,-0.2177,-0.2197,-0.2214,-0.2199,-0.2224,-0.2175,-0.2214,-0.2179,-0.2138,-0.2134,-0.2061,-0.2086,-0.1869,-0.1754,-0.2097,-0.2099,-0.21,-0.2102,0,-0.1762,-0.1842,-0.1881,-0.1909,-0.2001,-0.2019,-0.2062,-0.2115,-0.2118,-0.2137,-0.2134,-0.2144,-0.213,-0.2089,-0.2088,-0.2115,-0.1978,-0.2012,-0.1905,-0.1901,-0.1763,-0.175,-0.1915,-0.1915,-0.1915,-0.1916,-0.1916,0,-0.1746,-0.1784,-0.1872,-0.1912,-0.1936,-0.2013,-0.2022,-0.2066,-0.2075,-0.2064,-0.2121,-0.2084,-0.2088,-0.2036,-0.2027,-0.1935,-0.1951,-0.1865,-0.1849,-0.1757,-0.1746,-0.1997,-0.2008,-0.1911,-0.1912,-0.1913,-0.1914,0,-0.1704,-0.1757,-0.181,-0.1908,-0.1928,-0.1951,-0.1983,-0.1964,-0.2029,-0.1993,-0.1983,-0.2011,-0.1961,-0.1945,-0.1857,-0.1851,-0.1763,-0.1717,-0.1616,-0.1589,-0.1732,-0.1744,-0.1568,-0.1564,-0.1561,-0.1558,-0.1556,0,-0.1692,-0.1716,-0.1798,-0.181,-0.1853,-0.1883,-0.1866,-0.1921,-0.191,-0.1942,-0.1903,-0.186,-0.1815,-0.1697,-0.1629,-0.1543,-0.164,-0.1385,-0.1409,-0.1684,-0.1687,-0.1705,-0.172,-0.1227,-0.1223,-0.1219,-0.1216,0,-0.1661,-0.1678,-0.1716,-0.1733,-0.173,-0.171,-0.1729,-0.1721,-0.1761,-0.1755,-0.1737,-0.1693,-0.1597,-0.1442,-0.1348,-0.13,-0.1398,-0.1302,-0.1572,-0.1348,-0.1356,-0.1364,-0.1391,-0.1181,-0.1185,-0.1187,-0.1189,-0.1191,-0.1608,-0.1605,-0.1619,-0.1608,-0.16,-0.1556,-0.1513,-0.1531,-0.1492,-0.1491,-0.1529,-0.1446,-0.1391,-0.1175,-0.1081,-0.1021,-0.1131,-0.1095,-0.1109,-0.1127,-0.1121,-0.1124,-0.0904,-0.0906,-0.0908,-0.0909,-0.091,0,-0.15,-0.1495,-0.1493,-0.1457,-0.138,-0.142,-0.1398,-0.1339,-0.1282,-0.1289,-0.1259,-0.1096,-0.0966,-0.0934,-0.0768,-0.0721,-0.0744,-0.0703,-0.0737,-0.077,-0.08,-0.078,-0.0472,-0.047,-0.0469,-0.0468,0,0,-0.1431,-0.1368,-0.1352,-0.1205,-0.1202,-0.1071,-0.1046,-0.1014,-0.1008,-0.0956,-0.0916,-0.0949,-0.0924,-0.0715,-0.0636,-0.0527,-0.0655,-0.05,-0.0851,-0.0926,-0.0955,-0.1019,-0.1025,0,0,0,0,0]},{"header":{"parameterUnit":"m.s-1","parameterCategory":2,"la1":30.2991,"la2":30.254,"lo1":-89.0895,"lo2":-89.0444,"dy":0.0017,"dx":0.0017,"nx":28,"ny":28,"refTime":"2024-07-24T03:00:00:Z","depth":"2","parameterNumber":3,"parameterNumberName":"V-component_of_CURRENTS"},"data":[0,0,0,0,0,0,0,0,0,0,0,0,0,0,0,0,0,0,0,0,0,0,0,0,0,0,0,0,0,0,0,0,0,0,0,0,0,0,0,0,0,0,0,0,0,0,0,0,0,0,0,0,0,0,0,0,0,0,-0.0384,-0.0383,0,-0.0314,-0.0313,-0.0312,-0.0267,-0.0267,-0.0267,-0.0267,-0.0028,-0.0022,-0.0016,0,0,0,0,0,0,0,0,0,0,0,0,0,-0.0401,-0.0401,-0.0384,-0.0383,-0.0382,-0.0314,-0.0313,-0.0312,-0.0267,-0.0267,-0.0267,-0.0267,-0.003,-0.0023,-0.0016,0,0,0,0,0,0,0,0,0,0,0,0,0,-0.0368,-0.0401,-0.0384,-0.0353,-0.0349,-0.0314,-0.0313,-0.0311,-0.0267,-0.0267,-0.0267,-0.0267,-0.0033,-0.0024,-0.0015,0.0038,0,0,0.0014,0.0018,0,0,0,0,0,0,0,0,-0.037,-0.0367,-0.0358,-0.0355,-0.0351,-0.03,-0.0231,-0.0187,-0.0267,-0.0297,-0.0267,-0.0266,-0.0104,-0.0089,-0.0077,0.0049,0.0059,0.0015,0.002,0.0024,0.0027,0,0,0,0,0,0,0,-0.0372,-0.0369,-0.0355,-0.0357,-0.0353,-0.0315,-0.0311,-0.0223,-0.0199,-0.0295,-0.0292,-0.0285,-0.0101,-0.0087,-0.0071,0.0063,0.0014,0.0023,0.0028,0.0032,0.0265,0.0266,0,0,0,0,0,0,-0.0388,-0.0372,-0.0357,-0.0353,-0.0361,-0.0316,-0.0311,-0.0316,-0.0204,-0.0188,-0.0286,-0.0284,-0.0103,-0.0082,-0.0062,0.0026,0.0024,0.0033,0.0038,0.0264,0.0265,0.0266,0,0,0,0,0,0,-0.0388,-0.0387,-0.036,-0.0361,-0.0355,-0.0316,-0.0322,-0.0314,-0.03,-0.0199,-0.018,-0.0279,-0.0102,-0.0075,-0.002,0.0035,0.0037,0.0045,0.0264,0.0265,0.0266,0.019,0,0,0,0,0,0,-0.0389,-0.0388,-0.0396,-0.0363,-0.0356,-0.0346,-0.0322,-0.0313,-0.0297,-0.0293,-0.0186,-0.0164,-0.01,-0.0035,-0.0011,0.0048,0.0053,0.0263,0.0264,0.0265,0.0192,0.0189,0.0186,0,0,0,0,0,-0.039,-0.0403,-0.0398,-0.0395,-0.0369,-0.0347,-0.034,-0.031,-0.0297,-0.0294,-0.0247,-0.0168,-0.0008,-0.0029,-0.0,0.0063,0.0262,0.0264,0.0265,0.0194,0.0189,0.0186,0,0,0,0,0,0,-0.041,-0.0399,-0.0392,-0.04,-0.0379,-0.034,-0.0335,-0.0314,-0.0275,-0.0271,-0.018,-0.0156,-0.0075,-0.001,-0.0035,0.0132,0.0151,0.0158,0.0087,0.0084,0.0081,0.0057,0.006,0,0,0,0,0,-0.0422,-0.0431,-0.0407,-0.0413,-0.0407,-0.0373,-0.036,-0.0341,-0.0303,-0.0287,-0.0214,-0.013,-0.0045,0.0007,0.0087,0.0166,0.019,0.0232,0.0228,0.0225,0.0224,0.0244,0.0242,0.0271,0.0271,0.027,0,0,-0.0431,-0.0425,-0.043,-0.0419,-0.0401,-0.0394,-0.0364,-0.0352,-0.0334,-0.0261,-0.0215,-0.014,-0.0031,0.005,0.0098,0.0111,0.0232,0.0227,0.0223,0.0224,0.0245,0.0242,0.024,0.0271,0.0271,0.0271,0,0,-0.0455,-0.0452,-0.0468,-0.0456,-0.0438,-0.0413,-0.0413,-0.0375,-0.0349,-0.0305,-0.0239,-0.016,-0.0033,0.005,0.0112,0.0141,0.0207,0.0192,0.017,0.0189,0.0186,0.0184,0.0211,0.0212,0.0198,0.0198,0.0198,0,-0.0465,-0.0487,-0.0466,-0.0475,-0.0468,-0.0426,-0.0433,-0.0397,-0.0344,-0.0315,-0.0298,-0.0131,-0.0028,0.0074,0.0095,0.014,0.0148,0.0173,0.0182,0.018,0.0179,0.0208,0.0209,0.0194,0.0195,0.0195,0.0195,0,-0.0502,-0.0516,-0.0523,-0.0522,-0.0506,-0.0509,-0.0461,-0.0444,-0.0402,-0.0345,-0.0257,-0.0156,-0.0048,0.0011,0.0073,0.0143,0.015,0.0164,0.0181,0.0171,0.0203,0.0206,0.0189,0.0191,0.0192,0.0192,0,0,-0.0536,-0.055,-0.0553,-0.0561,-0.0537,-0.0525,-0.0506,-0.0462,-0.0437,-0.0364,-0.0326,-0.0163,-0.0098,-0.0026,0.0064,0.0094,0.012,0.0126,0.0129,0.0135,0.0153,0.0187,0.0194,0.0115,0.0115,0.0115,0.0177,0,-0.0574,-0.0614,-0.0599,-0.0614,-0.0628,-0.059,-0.0568,-0.0515,-0.0453,-0.0401,-0.029,-0.0205,-0.0111,-0.0062,-0.0009,0.0094,0.0123,0.0101,0.0179,0.0182,0.0198,0.0198,0.0196,0.0253,0.0181,0.0181,0.0182,0,-0.0615,-0.0638,-0.0676,-0.067,-0.0669,-0.0661,-0.0627,-0.0598,-0.0509,-0.0458,-0.0368,-0.0282,-0.0167,-0.0127,0.0026,-0.0,0.0077,0.013,0.0133,0.0194,0.0222,0.0255,0.0261,0.0187,0.0187,0.0186,0.0186,0,-0.066,-0.0682,-0.0718,-0.072,-0.0707,-0.0709,-0.0688,-0.0614,-0.0583,-0.0498,-0.0464,-0.0332,-0.0256,-0.0168,0.0007,0.0002,0.0128,0.0139,0.023,0.0234,0.0266,0.0272,0.0199,0.0199,0.0199,0.0199,0.0199,0,-0.0711,-0.0734,-0.0744,-0.0766,-0.0788,-0.0748,-0.0739,-0.0705,-0.0642,-0.0586,-0.0483,-0.0424,-0.0271,-0.0162,-0.0037,0.0128,0.0108,0.0228,0.0251,0.0242,0.0245,0.0217,0.0218,0.0201,0.0201,0.02,0.02,0,-0.0754,-0.077,-0.0809,-0.0816,-0.0817,-0.0828,-0.0797,-0.0775,-0.0711,-0.0655,-0.0637,-0.0488,-0.0332,-0.0185,-0.0019,0.0093,0.0219,0.0271,0.026,0.0281,0.0317,0.0314,0.0368,0.037,0.0372,0.0373,0.0374,0,-0.0784,-0.0814,-0.0854,-0.0877,-0.0884,-0.0888,-0.0882,-0.0825,-0.0788,-0.0675,-0.0646,-0.0507,-0.0356,-0.01,0.0081,0.0269,0.0265,0.0363,0.0365,0.0317,0.0334,0.0328,0.0324,0.0381,0.0382,0.0382,0.0383,0,-0.0835,-0.0852,-0.0886,-0.0936,-0.0949,-0.0953,-0.0933,-0.0921,-0.0829,-0.0764,-0.0632,-0.052,-0.0261,-0.0027,0.0199,0.0304,0.0333,0.0386,0.0336,0.0337,0.0333,0.0348,0.0342,0.039,0.039,0.0389,0.0389,0.0388,-0.0868,-0.0906,-0.0948,-0.0981,-0.1001,-0.0993,-0.0983,-0.0925,-0.0864,-0.072,-0.0616,-0.0403,-0.0205,0.0149,0.0294,0.0415,0.0416,0.0458,0.0453,0.0448,0.0438,0.0436,0.0511,0.0511,0.0511,0.0511,0.0511,0,-0.0904,-0.0939,-0.098,-0.1019,-0.1025,-0.1025,-0.0992,-0.0943,-0.0849,-0.0678,-0.0516,-0.0267,-0.001,0.0173,0.0388,0.0512,0.0485,0.0517,0.0469,0.0463,0.0457,0.0444,0.0521,0.0521,0.0521,0.0521,0,0,-0.0928,-0.0975,-0.0989,-0.1017,-0.1033,-0.1028,-0.1004,-0.0909,-0.0781,-0.0584,-0.0408,-0.0185,0.0037,0.0189,0.0337,0.0442,0.0411,0.0438,0.0424,0.0346,0.0338,0.0424,0.0398,0,0,0,0,0]}],[{"header":{"parameterUnit":"m.s-1","parameterCategory":2,"la1":30.2991,"la2":30.254,"lo1":-89.0895,"lo2":-89.0444,"dy":0.0017,"dx":0.0017,"nx":28,"ny":28,"refTime":"2024-07-24T03:00:00:Z","depth":"4","parameterNumber":2,"parameterNumberName":"U-component_of_CURRENTS"},"data":[0,0,0,0,0,0,0,0,0,0,0,0,0,0,0,0,0,0,0,0,0,0,0,0,0,0,0,0,0,0,0,0,0,0,0,0,0,0,0,0,0,0,0,0,0,0,0,0,0,0,0,0,0,0,0,0,0,0,-0.114,-0.114,0,-0.1183,-0.1183,-0.1184,-0.1212,-0.1212,-0.1213,-0.1213,-0.1255,-0.1256,-0.1257,0,0,0,0,0,0,0,0,0,0,0,0,0,-0.1099,-0.1099,-0.114,-0.1141,-0.1141,-0.1183,-0.1183,-0.1184,-0.1212,-0.1212,-0.1213,-0.1213,-0.1255,-0.1256,-0.1257,0,0,0,0,0,0,0,0,0,0,0,0,0,-0.1126,-0.1099,-0.114,-0.1161,-0.1163,-0.1183,-0.1183,-0.1184,-0.1212,-0.1212,-0.1213,-0.1213,-0.1255,-0.1256,-0.1257,-0.1259,0,0,-0.1261,-0.1262,0,0,0,0,0,0,0,0,-0.1124,-0.1127,-0.1157,-0.1159,-0.1162,-0.1193,-0.1184,-0.1209,-0.1212,-0.1193,-0.1213,-0.1213,-0.1234,-0.1237,-0.1244,-0.1261,-0.1262,-0.1262,-0.1262,-0.1263,-0.1263,0,0,0,0,0,0,0,-0.1122,-0.1126,-0.1156,-0.1158,-0.1161,-0.1173,-0.1177,-0.1189,-0.1211,-0.1195,-0.1197,-0.1202,-0.1236,-0.1243,-0.1245,-0.1263,-0.1262,-0.1263,-0.1264,-0.1264,-0.1363,-0.1365,0,0,0,0,0,0,-0.1117,-0.1124,-0.1155,-0.1158,-0.1144,-0.1174,-0.1178,-0.1182,-0.1211,-0.1216,-0.1202,-0.1203,-0.124,-0.1244,-0.1247,-0.1295,-0.1263,-0.1264,-0.1265,-0.1361,-0.1364,-0.1365,0,0,0,0,0,0,-0.1116,-0.1119,-0.1153,-0.1142,-0.1148,-0.1174,-0.1178,-0.1183,-0.1208,-0.1216,-0.1221,-0.1224,-0.1241,-0.1245,-0.129,-0.1295,-0.1265,-0.1266,-0.1359,-0.1362,-0.1365,-0.1363,0,0,0,0,0,0,-0.1114,-0.1118,-0.1127,-0.1142,-0.1148,-0.1177,-0.1178,-0.1183,-0.121,-0.1212,-0.1237,-0.124,-0.1241,-0.1288,-0.1292,-0.1297,-0.1267,-0.1357,-0.136,-0.1364,-0.1361,-0.1365,-0.1369,0,0,0,0,0,-0.1113,-0.1119,-0.1128,-0.1132,-0.1157,-0.1178,-0.1182,-0.1201,-0.121,-0.1225,-0.1255,-0.124,-0.1312,-0.1291,-0.1294,-0.13,-0.1355,-0.1359,-0.1363,-0.1359,-0.1364,-0.1369,0,0,0,0,0,0,-0.1107,-0.1123,-0.1133,-0.1144,-0.1166,-0.1183,-0.1198,-0.1212,-0.1246,-0.1253,-0.1264,-0.127,-0.1307,-0.1317,-0.1294,-0.1344,-0.1331,-0.1335,-0.1326,-0.1331,-0.1335,-0.132,-0.1268,0,0,0,0,0,-0.1109,-0.1118,-0.1138,-0.115,-0.1161,-0.1184,-0.1198,-0.1212,-0.1238,-0.1254,-0.1277,-0.1304,-0.1323,-0.134,-0.1359,-0.1388,-0.1388,-0.1398,-0.1402,-0.1405,-0.1399,-0.1424,-0.1429,-0.1379,-0.1379,-0.1379,0,0,-0.1112,-0.1121,-0.1128,-0.115,-0.1168,-0.1187,-0.1194,-0.1218,-0.1239,-0.1252,-0.1298,-0.1318,-0.1337,-0.1369,-0.1386,-0.1379,-0.142,-0.141,-0.1412,-0.1404,-0.1429,-0.1433,-0.1437,-0.1382,-0.1381,-0.1381,0,0,-0.1112,-0.113,-0.1136,-0.1155,-0.1182,-0.1199,-0.1211,-0.1242,-0.1262,-0.1307,-0.1319,-0.1347,-0.1393,-0.1398,-0.1407,-0.1449,-0.144,-0.1465,-0.1471,-0.1496,-0.1499,-0.1502,-0.1499,-0.1502,-0.1468,-0.1468,-0.1468,0,-0.1118,-0.1125,-0.1143,-0.1156,-0.1174,-0.1206,-0.1223,-0.1248,-0.1295,-0.1312,-0.1327,-0.1393,-0.1399,-0.1426,-0.1438,-0.1452,-0.1466,-0.1442,-0.1498,-0.1501,-0.1504,-0.1501,-0.1503,-0.1469,-0.1468,-0.1468,-0.1468,0,-0.1116,-0.1133,-0.1141,-0.1168,-0.1192,-0.1213,-0.1247,-0.1281,-0.1314,-0.1336,-0.1385,-0.1411,-0.1448,-0.1453,-0.1454,-0.1482,-0.1484,-0.1494,-0.1474,-0.1508,-0.1503,-0.1506,-0.1469,-0.1469,-0.1469,-0.1469,0,0,-0.1099,-0.1133,-0.1138,-0.1151,-0.12,-0.1216,-0.1259,-0.1297,-0.1327,-0.1375,-0.1419,-0.1439,-0.1459,-0.1472,-0.1484,-0.1499,-0.1516,-0.1508,-0.1509,-0.1486,-0.1563,-0.1436,-0.1427,-0.1546,-0.1547,-0.1548,-0.1547,0,-0.1095,-0.1112,-0.1137,-0.1168,-0.1181,-0.1228,-0.1266,-0.1307,-0.1353,-0.1409,-0.1434,-0.1482,-0.1467,-0.1496,-0.1507,-0.1525,-0.1528,-0.1515,-0.1551,-0.1551,-0.1418,-0.1427,-0.1551,-0.1549,-0.1549,-0.155,-0.155,0,-0.1076,-0.1094,-0.1118,-0.1162,-0.1174,-0.1205,-0.127,-0.131,-0.1384,-0.142,-0.147,-0.1512,-0.1543,-0.1538,-0.1561,-0.1562,-0.1555,-0.1559,-0.156,-0.1441,-0.1429,-0.1514,-0.1556,-0.1555,-0.1555,-0.1554,-0.1554,0,-0.1032,-0.1074,-0.1092,-0.1109,-0.1172,-0.1197,-0.1239,-0.131,-0.1353,-0.1438,-0.1486,-0.1536,-0.1576,-0.159,-0.1584,-0.1591,-0.1606,-0.1618,-0.149,-0.1481,-0.1596,-0.1593,-0.1623,-0.1623,-0.1623,-0.1623,-0.1623,0,-0.0999,-0.1017,-0.1074,-0.1084,-0.1114,-0.1172,-0.1224,-0.1269,-0.1364,-0.1413,-0.149,-0.1534,-0.1595,-0.1617,-0.1605,-0.1539,-0.1618,-0.1477,-0.147,-0.1596,-0.1593,-0.1597,-0.1594,-0.1623,-0.1623,-0.1623,-0.1623,0,-0.0944,-0.0982,-0.1,-0.1065,-0.1089,-0.1109,-0.1207,-0.1249,-0.1339,-0.1415,-0.1451,-0.1546,-0.1555,-0.1582,-0.16,-0.1544,-0.1512,-0.1467,-0.158,-0.1582,-0.1369,-0.1366,-0.1333,-0.1328,-0.1324,-0.1321,-0.1318,0,-0.0913,-0.0919,-0.0973,-0.0982,-0.1013,-0.1066,-0.1111,-0.1218,-0.1271,-0.14,-0.1429,-0.149,-0.1528,-0.1447,-0.1476,-0.143,-0.1408,-0.1386,-0.1382,-0.1341,-0.1339,-0.1342,-0.1345,-0.1312,-0.1311,-0.131,-0.1309,0,-0.0857,-0.0881,-0.0896,-0.0914,-0.095,-0.0999,-0.1072,-0.1109,-0.1238,-0.1332,-0.1371,-0.1381,-0.138,-0.1372,-0.1333,-0.1305,-0.1404,-0.1346,-0.1354,-0.135,-0.1316,-0.1318,-0.1325,-0.1296,-0.1298,-0.1299,-0.13,0,-0.0812,-0.0803,-0.0821,-0.0828,-0.0875,-0.0916,-0.0968,-0.1035,-0.1105,-0.1259,-0.126,-0.1311,-0.1376,-0.1304,-0.1275,-0.1226,-0.1208,-0.1177,-0.1194,-0.1209,-0.1163,-0.1101,-0.0996,0,0,0,0,0,-0.0757,-0.074,-0.0738,-0.0745,-0.0794,-0.0826,-0.0938,-0.1006,-0.114,-0.1134,-0.1199,-0.1193,-0.1161,-0.1183,-0.1101,-0.1193,-0.12,-0.1092,-0.1171,-0.1222,-0.1237,-0.1191,0,0,0,0,0,0,-0.0717,-0.0713,-0.0706,-0.0682,-0.0679,-0.0739,-0.081,-0.0902,-0.0913,-0.1038,-0.1023,-0.1102,-0.1078,-0.1172,-0.1067,-0.1068,-0.109,-0.1119,-0.1116,-0.1213,-0.1227,-0.124,-0.1198,0,0,0,0,0]},{"header":{"parameterUnit":"m.s-1","parameterCategory":2,"la1":30.2991,"la2":30.254,"lo1":-89.0895,"lo2":-89.0444,"dy":0.0017,"dx":0.0017,"nx":28,"ny":28,"refTime":"2024-07-24T03:00:00:Z","depth":"4","parameterNumber":3,"parameterNumberName":"V-component_of_CURRENTS"},"data":[0,0,0,0,0,0,0,0,0,0,0,0,0,0,0,0,0,0,0,0,0,0,0,0,0,0,0,0,0,0,0,0,0,0,0,0,0,0,0,0,0,0,0,0,0,0,0,0,0,0,0,0,0,0,0,0,0,0,-0.0292,-0.0292,0,-0.0279,-0.0279,-0.0279,-0.0264,-0.0264,-0.0263,-0.0263,-0.0239,-0.0239,-0.0238,0,0,0,0,0,0,0,0,0,0,0,0,0,-0.0286,-0.0286,-0.0292,-0.0292,-0.0292,-0.0279,-0.0279,-0.0279,-0.0264,-0.0264,-0.0263,-0.0263,-0.0239,-0.0239,-0.0238,0,0,0,0,0,0,0,0,0,0,0,0,0,-0.0283,-0.0286,-0.0292,-0.0283,-0.0282,-0.0279,-0.0279,-0.0279,-0.0264,-0.0264,-0.0263,-0.0263,-0.0239,-0.0239,-0.0238,-0.0242,0,0,-0.0236,-0.0236,0,0,0,0,0,0,0,0,-0.0283,-0.0283,-0.0284,-0.0284,-0.0282,-0.0273,-0.0268,-0.0266,-0.0264,-0.0271,-0.0263,-0.0263,-0.0249,-0.0248,-0.0247,-0.0241,-0.0239,-0.0236,-0.0236,-0.0236,-0.0235,0,0,0,0,0,0,0,-0.0283,-0.0283,-0.0287,-0.0284,-0.0283,-0.0273,-0.0272,-0.0267,-0.0262,-0.027,-0.0269,-0.0268,-0.0249,-0.0247,-0.0246,-0.0239,-0.0236,-0.0236,-0.0235,-0.0235,-0.0243,-0.0243,0,0,0,0,0,0,-0.0286,-0.0284,-0.0288,-0.0287,-0.0282,-0.0273,-0.0273,-0.0276,-0.0263,-0.026,-0.0268,-0.0267,-0.0249,-0.0247,-0.0245,-0.0263,-0.0236,-0.0235,-0.0235,-0.0242,-0.0243,-0.0244,0,0,0,0,0,0,-0.0286,-0.0287,-0.0288,-0.0284,-0.0284,-0.0274,-0.0278,-0.0276,-0.0279,-0.0261,-0.0258,-0.0273,-0.0248,-0.0246,-0.0246,-0.0262,-0.0235,-0.0234,-0.0242,-0.0242,-0.0243,-0.029,0,0,0,0,0,0,-0.0286,-0.0287,-0.0295,-0.0285,-0.0284,-0.0295,-0.0278,-0.0276,-0.0278,-0.0277,-0.0264,-0.0261,-0.0248,-0.0247,-0.0246,-0.026,-0.0234,-0.0241,-0.0242,-0.0243,-0.0288,-0.0293,-0.0297,0,0,0,0,0,-0.0286,-0.0298,-0.0295,-0.0296,-0.0294,-0.0296,-0.0295,-0.0286,-0.0279,-0.0286,-0.0275,-0.0262,-0.0253,-0.0247,-0.0245,-0.026,-0.024,-0.0242,-0.0243,-0.0286,-0.0292,-0.0297,0,0,0,0,0,0,-0.0299,-0.0297,-0.0294,-0.0305,-0.0304,-0.0293,-0.03,-0.0292,-0.0289,-0.0289,-0.0269,-0.0266,-0.0272,-0.0259,-0.0254,-0.0265,-0.0245,-0.0246,-0.0278,-0.0284,-0.0288,-0.0279,-0.0233,0,0,0,0,0,-0.0306,-0.0316,-0.031,-0.032,-0.0321,-0.0312,-0.0313,-0.0308,-0.0301,-0.03,-0.0289,-0.0279,-0.0276,-0.0274,-0.0268,-0.0275,-0.0227,-0.0283,-0.0287,-0.0291,-0.0282,-0.0212,-0.0208,-0.0248,-0.0248,-0.0248,0,0,-0.0314,-0.0314,-0.032,-0.0324,-0.0322,-0.0335,-0.0312,-0.0318,-0.0329,-0.0298,-0.0309,-0.0295,-0.0281,-0.0289,-0.0291,-0.028,-0.0258,-0.0293,-0.0296,-0.0285,-0.0213,-0.0209,-0.0205,-0.0249,-0.0249,-0.0248,0,0,-0.0337,-0.0336,-0.0354,-0.0356,-0.0358,-0.0355,-0.036,-0.0354,-0.0352,-0.036,-0.0339,-0.0329,-0.0331,-0.0316,-0.0311,-0.0334,-0.0283,-0.0341,-0.0355,-0.0288,-0.0283,-0.0279,-0.0223,-0.0213,-0.0343,-0.0343,-0.0343,0,-0.0347,-0.0369,-0.0359,-0.0376,-0.0384,-0.0368,-0.039,-0.0387,-0.0382,-0.0378,-0.0372,-0.0351,-0.0341,-0.0334,-0.0345,-0.0343,-0.0296,-0.0339,-0.0292,-0.0286,-0.028,-0.0224,-0.0213,-0.0345,-0.0345,-0.0345,-0.0344,0,-0.0382,-0.0402,-0.0412,-0.0431,-0.0437,-0.0453,-0.0448,-0.0452,-0.0447,-0.0435,-0.0425,-0.04,-0.0382,-0.0384,-0.0375,-0.0341,-0.0319,-0.0304,-0.0275,-0.0279,-0.022,-0.0207,-0.0349,-0.0348,-0.0347,-0.0346,0,0,-0.0401,-0.0432,-0.0437,-0.0456,-0.0469,-0.0477,-0.0495,-0.05,-0.05,-0.0486,-0.0472,-0.0464,-0.0431,-0.0421,-0.0398,-0.0344,-0.0276,-0.0312,-0.0308,-0.0252,-0.0126,-0.0136,-0.0122,-0.0247,-0.0244,-0.0243,-0.0104,0,-0.0434,-0.0482,-0.0486,-0.053,-0.0555,-0.0546,-0.0563,-0.0561,-0.0545,-0.0525,-0.0484,-0.0465,-0.0451,-0.0435,-0.0381,-0.0297,-0.0242,-0.0315,-0.0135,-0.013,-0.0132,-0.0107,-0.0236,-0.0094,-0.0091,-0.0089,-0.0087,0,-0.0467,-0.0497,-0.055,-0.0583,-0.0592,-0.0613,-0.0623,-0.0631,-0.0598,-0.0583,-0.0542,-0.0495,-0.0428,-0.0409,-0.0258,-0.0302,-0.022,-0.0151,-0.0144,-0.0123,-0.0114,-0.0087,-0.0063,-0.0065,-0.0067,-0.0068,-0.007,0,-0.0489,-0.0538,-0.0585,-0.0597,-0.0632,-0.065,-0.0663,-0.065,-0.0646,-0.0603,-0.0576,-0.0496,-0.0439,-0.0325,-0.02,-0.0214,-0.0018,-0.0018,0.005,0.005,0.0038,0.0032,0.0099,0.0099,0.0099,0.0098,0.0098,0,-0.0519,-0.0555,-0.0601,-0.0625,-0.0673,-0.0681,-0.0707,-0.0705,-0.0679,-0.0656,-0.0599,-0.0542,-0.0408,-0.0287,-0.0182,-0.0025,-0.0001,0.0063,0.0093,0.0012,0.0001,0.0047,0.004,0.0103,0.0102,0.0101,0.01,0,-0.0534,-0.0567,-0.062,-0.0669,-0.0687,-0.0717,-0.0742,-0.0746,-0.0723,-0.0681,-0.0661,-0.0551,-0.0393,-0.0261,-0.0062,0.0001,0.0147,0.0193,0.0095,0.0115,0.0167,0.0155,0.0297,0.0298,0.0299,0.0299,0.03,0,-0.0545,-0.0578,-0.0648,-0.068,-0.0707,-0.075,-0.0775,-0.0775,-0.0761,-0.0675,-0.0641,-0.0494,-0.0408,-0.0126,-0.0011,0.0189,0.0203,0.0268,0.0217,0.0176,0.0192,0.0178,0.0165,0.0301,0.0301,0.0302,0.0302,0,-0.0562,-0.0591,-0.0633,-0.07,-0.0741,-0.078,-0.0802,-0.0789,-0.0759,-0.0736,-0.0584,-0.0446,-0.0274,-0.0098,0.0047,0.0183,0.0221,0.0277,0.0276,0.0229,0.0183,0.0195,0.0181,0.0305,0.0304,0.0304,0.0304,0,-0.0569,-0.0601,-0.0656,-0.0708,-0.0763,-0.0785,-0.0799,-0.0757,-0.0734,-0.0627,-0.0573,-0.0396,-0.0295,-0.0098,0.004,0.0165,0.019,0.0215,0.0218,0.0216,0.0132,0.0058,0.0184,0,0,0,0,0,-0.0574,-0.0607,-0.0657,-0.0715,-0.0766,-0.0794,-0.0804,-0.0802,-0.0762,-0.0647,-0.0604,-0.0437,-0.021,-0.0113,0.0018,0.0026,0.0182,0.0177,0.0204,0.0321,0.0318,0.0229,0,0,0,0,0,0,-0.058,-0.0628,-0.0652,-0.0703,-0.0742,-0.0789,-0.0795,-0.077,-0.0693,-0.063,-0.0499,-0.0425,-0.0204,-0.0279,0.0016,0.0051,0.0081,0.0283,0.0285,0.0323,0.032,0.0317,0.0225,0,0,0,0,0]}]]